Location: Houhaj�rvi
(61.2667°N, 23.0167°E)
Time: 18:28:40
(UTC+00:00)

NOSS 2-3 (E) - Pass Details

Date: 13 December 2019
Orbit: 592 x 1619 km, 63.4° (Epoch: 16 January)

Event Time Altitude Azimuth Distance (km) Brightness Sun altitude
Rises 15:36:26 0° 286° (WNW) 3,219 8.1 -14.9°
Reaches altitude 10° 15:38:35 10° 288° (WNW) 2,402 7.3 -15.2°
Maximum altitude 15:44:10 82° 17° (NNE) 982 4.4 -15.8°
Enters shadow 15:49:51 17° 104° (ESE) 2,520 6.2 -16.4°
